DL6MM-4 Weather Reports


time (UTC)temp
C
wind
direction
speed
KPH
gust
KPH
rain 1hr
cm
rain 24hr
cm
rain mn
cm
humidity
%
barometer
mb
20260506154916 10 0 0.0 4.8 0.00 1.83 0.00 83 1004.7
20260506153916 10 0 0.0 6.4 0.00 1.83 0.00 84 1004.7
20260506152916 10 0 0.0 4.8 0.00 1.83 0.00 83 1004.9
20260506151916 10 0 0.0 4.8 0.00 1.83 0.00 83 1004.7
20260506150916 10 0 0.0 4.8 0.00 1.83 0.00 83 1004.7
20260506145916 10 0 0.0 4.8 0.00 1.83 0.00 83 1004.7
20260506144916 10 0 0.0 9.7 0.00 1.83 0.00 83 1004.6
20260506143916 11 0 0.0 4.8 0.00 1.83 0.00 82 1004.6
20260506142916 11 0 0.0 4.8 0.00 1.83 0.00 82 1004.6
20260506141916 11 0 0.0 4.8 0.00 1.83 0.00 82 1004.6
20260506140916 11 0 0.0 6.4 0.00 1.83 0.00 82 1004.6
20260506135916 11 0 0.0 9.7 0.00 1.83 0.00 82 1004.5
20260506134916 10 54 1.6 9.7 0.00 1.83 0.00 82 1004.5
20260506133917 10 44 4.8 12.9 0.00 1.83 0.00 82 1004.5
20260506132916 11 0 0.0 6.4 0.00 1.83 0.00 82 1004.5
20260506131916 10 0 0.0 9.7 0.00 1.83 0.00 82 1004.5
20260506130916 11 0 0.0 12.9 0.00 1.83 0.00 82 1004.4
20260506125916 11 0 0.0 6.4 0.00 1.83 0.00 81 1004.4
20260506124916 10 0 0.0 6.4 0.00 1.85 0.00 81 1004.4
20260506123916 11 0 0.0 1.6 0.00 1.85 0.00 81 1004.2
20260506122916 10 0 0.0 12.9 0.00 1.98 0.00 81 1004.2
20260506121916 10 0 0.0 6.4 0.00 1.98 0.00 81 1004.2
20260506120916 10 0 0.0 12.9 0.00 1.98 0.00 81 1004.1
20260506115916 10 0 0.0 6.4 0.00 1.98 0.00 82 1004.0
20260506114916 10 53 6.4 14.5 0.00 1.98 0.00 81 1004.1
20260506113916 10 53 1.6 12.9 0.00 1.98 0.00 81 1004.0
20260506112916 10 87 1.6 14.5 0.00 1.98 0.00 82 1004.0
20260506111916 10 51 1.6 22.5 0.00 1.98 0.00 81 1003.9
20260506110916 10 53 6.4 14.5 0.00 1.98 0.00 81 1003.7
20260506105916 10 71 1.6 12.9 0.00 1.98 0.00 81 1003.7
20260506104916 10 23 1.6 17.7 0.00 1.98 0.00 81 1003.9
20260506103916 10 0 0.0 14.5 0.00 1.98 0.00 81 1004.0
20260506102916 10 55 1.6 14.5 0.00 1.98 0.00 81 1003.9
20260506101916 10 0 0.0 9.7 0.00 1.98 0.00 81 1003.7
20260506100916 10 36 1.6 19.3 0.00 1.98 0.00 81 1003.7
20260506095916 10 0 0.0 17.7 0.00 1.98 0.00 81 1003.6
20260506094916 10 78 1.6 12.9 0.00 1.98 0.00 81 1003.5
20260506093916 10 48 1.6 9.7 0.00 1.98 0.00 81 1003.5
20260506092916 10 0 0.0 9.7 0.00 1.98 0.00 81 1003.5
20260506091916 10 0 0.0 17.7 0.00 1.98 0.00 81 1003.4
20260506090916 10 67 1.6 12.9 0.00 1.98 0.00 81 1003.4
20260506085916 10 61 1.6 17.7 0.00 1.98 0.00 81 1003.2
20260506084916 10 0 0.0 9.7 0.00 1.98 0.00 80 1003.2
20260506083916 10 0 0.0 9.7 0.00 1.96 0.00 81 1003.2
20260506082916 10 0 0.0 9.7 0.00 1.96 0.00 81 1003.2
20260506081916 10 0 0.0 12.9 0.00 1.93 0.00 81 1003.2
20260506080916 10 0 0.0 6.4 0.00 1.93 0.00 81 1003.1
20260506072916 10 0 0.0 9.7 0.05 1.93 0.00 81 1002.9
20260506071916 10 0 0.0 9.7 0.05 1.93 0.00 81 1003.0
20260506070916 10 0 0.0 4.8 0.05 1.91 0.00 80 1002.9
20260506061916 10 0 0.0 4.8 0.05 1.85 0.00 81 1002.9
20260506060916 10 69 1.6 9.7 0.05 1.80 0.00 81 1002.9
20260506050916 10 0 0.0 9.7 0.00 1.75 0.00 81 1002.9
20260506044916 10 0 0.0 4.8 0.05 1.75 0.00 81 1002.7
20260506043916 10 0 0.0 4.8 0.10 1.75 0.00 81 1002.7
20260506042916 10 0 0.0 1.6 0.13 1.75 0.00 81 1002.7
20260506041916 10 0 0.0 4.8 0.18 1.73 0.00 81 1002.7
20260506040916 10 0 0.0 0.0 0.18 1.70 0.00 82 1002.9
20260506035916 10 0 0.0 0.0 0.18 1.65 0.00 82 1002.9
20260506034916 10 0 0.0 4.8 0.18 1.65 0.00 83 1003.0
20260506033916 10 0 0.0 0.0 0.18 1.60 0.00 83 1003.1
20260506032916 10 0 0.0 6.4 0.20 1.60 0.00 84 1003.2
20260506031916 10 0 0.0 9.7 0.23 1.57 0.00 84 1003.1
20260506030916 10 0 0.0 6.4 0.20 1.55 0.00 84 1003.2
20260506025916 10 0 0.0 6.4 0.25 1.50 0.00 84 1003.4
20260506024916 11 0 0.0 6.4 0.23 1.45 0.00 84 1003.6
20260506023916 11 0 0.0 4.8 0.23 1.42 0.00 85 1003.7
20260506022916 11 0 0.0 4.8 0.23 1.40 0.00 85 1003.7
20260506021916 11 0 0.0 4.8 0.20 1.30 0.00 85 1003.7
20260506020916 11 59 1.6 6.4 0.23 1.27 0.00 85 1003.9
20260506015916 11 0 0.0 1.6 0.20 1.22 0.00 85 1003.9
20260506014916 11 0 0.0 1.6 0.20 1.19 0.00 85 1004.0
20260506013916 11 0 0.0 6.4 0.20 1.14 0.00 85 1004.1
20260506012916 11 0 0.0 6.4 0.20 1.09 0.00 85 1004.1
20260506011916 11 0 0.0 9.7 0.18 1.07 0.00 85 1004.1
20260506010916 11 0 0.0 6.4 0.18 1.02 0.00 85 1004.2
20260506005916 11 0 0.0 1.6 0.18 0.99 0.00 85 1004.2
20260506004916 11 0 0.0 4.8 0.18 0.97 0.00 86 1004.2
20260506003916 11 80 1.6 9.7 0.18 0.91 0.00 86 1004.2
20260506002916 11 0 0.0 9.7 0.18 0.89 0.00 86 1004.4
20260506001916 11 0 0.0 4.8 0.18 0.86 0.00 86 1004.5
20260506000916 11 0 0.0 4.8 0.18 0.84 0.00 86 1004.6
20260505235916 11 0 0.0 4.8 0.18 0.81 0.00 86 1004.6
20260505234916 11 0 0.0 9.7 0.18 0.79 0.00 86 1004.7
20260505233916 11 0 0.0 4.8 0.18 0.74 0.00 86 1004.7
20260505232916 11 0 0.0 4.8 0.13 0.71 0.00 86 1004.7
20260505231916 11 0 0.0 6.4 0.13 0.71 0.00 86 1004.9
20260505230916 11 0 0.0 6.4 0.10 0.64 0.00 86 1004.9
20260505225916 11 0 0.0 4.8 0.08 0.61 0.00 86 1005.0
20260505224916 11 0 0.0 6.4 0.08 0.58 0.00 85 1005.0
20260505223916 11 0 0.0 4.8 0.08 0.56 0.00 85 1005.0
20260505222916 11 0 0.0 4.8 0.05 0.53 0.00 85 1005.0
20260505221916 11 67 1.6 6.4 0.05 0.53 0.00 85 1005.1
20260505220916 11 0 0.0 4.8 0.08 0.53 0.00 86 1005.1
20260505215916 11 0 0.0 9.7 0.10 0.51 0.00 86 1005.2
20260505214916 11 60 1.6 9.7 0.13 0.48 0.00 86 1005.2
20260505213916 12 0 0.0 17.7 0.10 0.46 0.00 85 1005.2
20260505212916 12 64 1.6 12.9 0.13 0.46 0.00 85 1005.4
20260505211916 12 67 1.6 6.4 0.13 0.46 0.00 85 1005.4
20260505210916 12 80 1.6 12.9 0.10 0.43 0.00 86 1005.4
20260505205916 12 0 0.0 9.7 0.08 0.38 0.00 86 1005.5
20260505204916 12 0 0.0 9.7 0.05 0.36 0.00 86 1005.6
20260505203916 12 0 0.0 12.9 0.08 0.36 0.00 86 1005.6
20260505202916 12 0 0.0 17.7 0.05 0.36 0.00 86 1005.6
20260505201916 12 0 0.0 14.5 0.05 0.30 0.00 86 1005.6
20260505200916 12 65 1.6 14.5 0.03 0.30 0.00 86 1005.6
20260505195916 12 26 1.6 9.7 0.00 0.28 0.00 86 1005.5
20260505194916 12 0 0.0 14.5 0.00 0.25 0.00 86 1005.5
20260505193916 12 0 0.0 6.4 0.00 0.25 0.00 86 1005.5
20260505192916 12 56 1.6 9.7 0.00 0.25 0.00 86 1005.5
20260505191916 12 0 0.0 12.9 0.00 0.25 0.00 86 1005.5
20260505190916 12 0 0.0 6.4 0.00 0.28 0.00 86 1005.5
20260505185916 12 42 1.6 12.9 0.00 0.36 0.00 87 1005.5
20260505184916 12 0 0.0 14.5 0.00 0.43 0.00 87 1005.6
20260505183916 12 0 0.0 14.5 0.00 0.48 0.00 87 1005.5
20260505182916 13 0 0.0 6.4 0.00 0.48 0.00 87 1005.6
20260505181916 13 0 0.0 9.7 0.00 0.51 0.00 87 1005.6
20260505180916 13 66 4.8 14.5 0.00 0.51 0.00 87 1005.7
20260505175916 13 48 1.6 12.9 0.00 0.51 0.00 86 1005.7
20260505174916 13 35 1.6 12.9 0.00 0.53 0.00 86 1005.7
20260505173916 13 0 0.0 12.9 0.00 0.53 0.00 86 1005.7
20260505172916 13 0 0.0 6.4 0.00 0.53 0.00 86 1005.7
20260505171916 13 0 0.0 6.4 0.00 0.53 0.00 86 1005.7
20260505170916 13 0 0.0 9.7 0.00 0.53 0.00 86 1005.7
20260505165916 13 35 4.8 12.9 0.00 0.53 0.00 86 1005.7
20260505164916 13 38 4.8 17.7 0.00 0.53 0.00 86 1005.9
20260505163916 13 61 1.6 12.9 0.00 0.53 0.00 86 1006.0
20260505162916 13 66 4.8 12.9 0.00 0.53 0.00 86 1006.1
20260505161916 14 52 4.8 14.5 0.00 0.56 0.00 86 1006.1
20260505160916 14 60 1.6 12.9 0.00 0.56 0.00 86 1006.0